Regional Weather Roundup
Issued by NWS

Home | Current Version | Previous Version | Graphics & Text | Print | Product List | Glossary On
Versions: 1 2 3 4 5 6 7 8 9 10 11 12 13 14 15 16 17 18 19 20 21 22 23 24 25 26 27 28 29 30 31 32 33 34 35 36 37 38 39 40 41 42 43 44 45 46 47 48 49 50
000
ASUS43 KMKX 190820
RWRWI

WISCONSIN REGIONAL WEATHER ROUNDUP
NATIONAL WEATHER SERVICE MILWAUKEE/SULLIVAN WI
200 AM CST THU JAN 19 2017

NOTE: "FAIR" INDICATES FEW OR NO CLOUDS BELOW 12,000 FEET WITH NO
SIGNIFICANT WEATHER AND/OR OBSTRUCTIONS TO VISIBILITY.

WIZ001-002-006>008-014>016-023>028-190900-
NORTHWEST WISCONSIN

CITY           SKY/WX    TMP DP  RH WIND       PRES   REMARKS
SUPERIOR ARPT  CLOUDY    29  29  98 CALM      29.79F FOG
ASHLAND        CLOUDY    32  30  92 S6        29.82S FOG     WCI  26
HAYWARD        CLOUDY    29  27  92 S7        29.83S FOG     WCI  22
SIREN          CLOUDY    31  30  98 S7        29.81S FOG     WCI  24
CUMBERLAND     FOG       25  23  93 SE3       29.83F VSB 1/4
RICE LAKE      FOG       27  27  97 SE5       29.86F VSB<1/4 WCI  22
CHETEK         FOG       28  27  99 SE6       29.86F VSB 1/4 WCI  21
LADYSMITH      FOG       30  29  97 SE5       29.88S VSB 3/4 WCI  25
EAU CLAIRE     FOG       26  26 100 S6        29.88R VSB 1/4 WCI  19
MENOMONIE      SNOW      25  24  97 MISG      29.87S VSB 1/4
NEW RICHMOND   CLOUDY    31  31  99 S9        29.83S WCI  23
OSCEOLA        CLOUDY    32  32 100 S7        29.85S WCI  25
$$

WIZ003>005-009-010-017-018-190900-
NORTH CENTRAL WISCONSIN

CITY           SKY/WX    TMP DP  RH WIND       PRES   REMARKS
MANITOWISH WTR CLOUDY    31  31 100 SW6       29.84R FOG     WCI  25
ARBOR VITAE    CLOUDY    32  30  94 CALM      29.84S FOG
WOODRUFF       CLOUDY    32  30  94 CALM      29.84S FOG
RHINELANDER    FOG       31  30  96 SW8       29.86S VSB 1/2 WCI  23
EAGLE RIVER    CLOUDY    31  31 100 SW6       29.84S FOG     WCI  26
LAND O LAKES   CLOUDY    30  29  99 SW3       29.85S FOG
PHILLIPS       CLOUDY    29  29 100 S6        29.85S FOG     WCI  23
TOMAHAWK       CLOUDY    29  28  96 CALM      29.88R FOG
MEDFORD        FOG       29  29  99 SW7       29.87F VSB 1/4 WCI  22
MERRILL        FOG       30  30 100 SW3         N/A  VSB 1/2
$$

WIZ029-030-035-036-043>047-190900-
CENTRAL WISCONSIN

CITY           SKY/WX    TMP DP  RH WIND       PRES   REMARKS
WAUSAU         CLOUDY    29  29 100 SW6       29.89S FOG     WCI  23
MOSINEE        LGT SNOW  30  30 100 SW5       29.91S VSB 3/4 WCI  25
MARSHFIELD     FOG       30  29  96 SW9       29.89S VSB 1/4 WCI  22
STEVENS POINT  FOG       29  29 100 SW8       29.93R VSB 1/2 WCI  21
WAUPACA        CLOUDY    33  32  94 SW8       29.94S FOG     WCI  26
WAUTOMA        CLOUDY    33  31  92 S7        29.96R FOG     WCI  27
WISC RAPIDS    FOG       31  31 100 SW8       29.93S VSB 1   WCI  23
CAMP DOUGLAS   CLOUDY    34  33  93 S5        29.94R WCI  30
$$

WIZ011>013-019>022-031-037>040-048>050-190900-
NORTHEAST WISCONSIN

CITY           SKY/WX    TMP DP  RH WIND       PRES   REMARKS
ANTIGO         FOG       28  28 100 W6        29.88S VSB 1/2 WCI  22
SHAWANO        CLOUDY    31  29  92 CALM      29.93S FOG
OCONTO         CLOUDY    30  28  93 SW5       29.94R WCI  25
STURGEON BAY   CLOUDY    31  29  92 SW8       29.94R FOG     WCI  23
GREEN BAY      CLOUDY    34  32  92 SW7       29.95R FOG     WCI  28
MANITOWOC      CLOUDY    28  27  93 CALM      29.97R FOG
APPLETON       CLOUDY    32  32 100 SW10      29.93R FOG     WCI  24
CLINTONVILLE   CLOUDY    32  30  93 SW8       29.93S FOG     WCI  25
OSHKOSH        CLOUDY    32  30  92 SW9       29.95S FOG     WCI  24
$$

WIZ032>034-041-042-053>061-190900-
SOUTHWEST WISCONSIN

CITY           SKY/WX    TMP DP  RH WIND       PRES   REMARKS
LA CROSSE      CLOUDY    37  34  89 S15       29.94R WCI  28
SPARTA         CLOUDY    34  33  96 S6        29.95R WCI  29
VIROQUA        CLOUDY    34  34 100 S6        29.93S WCI  29
BOSCOBEL       CLOUDY    36  33  89 S3        29.98S FOG
PRAIRIE DU CHI PTCLDY    34  32  94 CALM      29.97R FOG
PLATTEVILLE    CLOUDY    33  33 100 S6        29.99R VSB 1/4 WCI  28
$$

WIZ056-057-062-063-064-067-068-190900-
SOUTH CENTRAL WISCONSIN

CITY           SKY/WX    TMP DP  RH WIND       PRES   REMARKS
REEDSBURG      CLOUDY    33  33 100 SW8       29.96R FOG     WCI  26
BARABOO/DELLS  CLOUDY    33  33  98 SW7       29.96R FOG     WCI  27
LONE ROCK      CLOUDY    35  32  88 S8        29.99S FOG     WCI  29
MINERAL POINT  SNOW      34  34 100 S9        29.97R VSB 1/4 WCI  26
MADISON        CLOUDY    33  33 100 S6        29.99F FOG     WCI  28
MIDDLETON      CLOUDY    35  35 100 S5        29.98F WCI  31
WATERTOWN      CLOUDY    34  34 100 SW7       29.99S FOG     WCI  28
MONROE         FOG       32  32 100 S16       29.98S VSB 1/4 WCI  21
JANESVILLE     CLEAR     32  32 100 CALM      30.01R FOG
$$

WIZ051-052-058>065-066-070>072-190900-
SOUTHEAST WISCONSIN

CITY           SKY/WX    TMP DP  RH WIND       PRES   REMARKS
MILWAUKEE      CLOUDY    35  33  92 SW9       30.00S FOG     WCI  28
WAUKESHA       CLOUDY    32  32 100 SW9       30.01S FOG     WCI  24
MILWAUKEE/TIMM CLOUDY    34  32  93 W8        30.00F FOG     WCI  27
RACINE         CLOUDY    33  31  92 SW8G16    30.03S FOG     WCI  26
KENOSHA        CLOUDY    33  32  96 SW10      30.02S FOG     WCI  25
FOND DU LAC    CLOUDY    33  30  88 SW9       29.97R FOG     WCI  25
SHEBOYGAN      CLOUDY    32  29  88 SW9       29.96R FOG     WCI  24
WEST BEND      CLOUDY    32  32 100 SW10      29.98R FOG     WCI  24
JUNEAU         FOG       32  32  99 S12       30.00R VSB 1/4 WCI  23
$$

LSZ147-162-190900-
LAKE SUPERIOR

STATION/POSITION TIME  TEMP    WIND        PRES    WAVE
                       AIR SEA DIR/SP/G            HT/PER
                 (UTC) (F)     (DEG/KT/KT) (MB)    (FT/S)
DEVILS ISLAND    0800   33     170/  8/  9 1010.3R
PORT WING        0740   26     170/  4/  4 1009.5S
SAXON HARBOR     0740   33     180/  3/  6 1009.8S
$$

LMZ867-665-643>646-190900-
LAKE MICHIGAN

STATION/POSITION TIME  TEMP    WIND        PRES    WAVE
                       AIR SEA DIR/SP/G            HT/PER
                 (UTC) (F)     (DEG/KT/KT) (MB)    (FT/S)
NORTHPORT PIER   0800   33     230/  6/ 16 1012.9
SISTER BAY       0650   34     220/ 13/ 16   N/A
KEWAUNEE LAKESHO 0754   32     220/  6/  7 1013.7F
SHEBOYGAN LAKESH 0800   33     230/  9/ 11 1015.0R
PORT WASHINGTON  0740   34     230/  7/ 12 1016.6S
MILWAUKEE LAKESH 0750   35     250/  5/  6   N/A
KENOSHA   LAKESH 0800   34     220/  7/ 12 1016.9
$$

TC  - TEMPERATURE IN CELSIUS
VSB - VISIBILITY IN STATUTE MILES
WCI - WIND CHILL INDEX
HX  - HEAT INDEX





USA.gov is the U.S. government's official web portal to all federal, state and local government web resources and services.